星链-35512(STARLINK-35512)

导读

STARLINK-35512是美国SpaceX公司星链(Starlink)星座中的一颗低轨通信卫星,于2025年11月6日发射入轨。星链星座旨在为全球提供宽带互联网接入服务,该卫星采用平板设计,搭载Ku/Ka波段通信载荷,配备氪工质霍尔推进器,具备自主避撞能力,设计使用寿命约5-7年,退役后会主动离轨再入大气层烧毁,服务全球组网的高速卫星互联网覆盖。

基本信息
目录编号:
66330
目录名称:
STARLINK-35512
国际标识:
2025-253M
轨道中心:
EARTH
卫星名称:
星链-35512
卫星全名:
星链-35512(STARLINK-35512)
卫星状态:
在轨 (已飞行303 天)
发射日期:
2025-11-06 UTC
国别 :
美国 (US)
星等 :
--
轨道信息
数据来源 国际轨道数据
星历时间: 2026-09-05T10:51:14+0800
14小时前
查看轨道信息
半长轴: 6861.171km
偏心率: 0.0001189
轨道倾角: 42.999°
近地点辐角 279.221°
升交点赤经 279.381°
平近点角 80.851°
近地点: 482.218km
远地点: 483.85km
周期: 94.266分钟
每日圈数: 15.275852
详细信息
固有亮度:
5
最大亮度:
2.5
卫星平台:
Starlink V1.0
覆盖范围:
全球
运营商:
太空探索技术公司
运营商所在国:
美国
制造商(研发单位):
太空探索技术公司
制造商所在国:
美国
使用方式:
暂无
卫星简介
Starlink 计划是 SpaceX 推出的全球卫星互联网项目,通过发射低轨道卫星,为全球尤其是偏远地区提供高速、低延迟的互联网服务。自 2019 年起,Starlink 已部署数千颗卫星,旨在缩小全球数字鸿沟,推动互联网普及。该项目还为军事、航空等行业提供通信支持,带来广泛经济效益。
2D轨道图
3D轨道图
轨道高度分析图
轨道倾角分析图
轨道综合分析图
查看轨道综合分析图
交会数据列表
事件ID 空间交会对象 最接近时刻(TCA) 交会距离 交会风险概率(CRP) 交会风险指数(CRI) 操作
CDM_260829-173405-788406-633021
2026-08-29T
17:34:35+0000
0.502 km
远距离
1.205145E-4 高风险 0.77
CDM_260906-140305-562306-633022
2026-09-06T
14:03:01+0000
0.644 km
远距离
8.290823E-5 中风险 0.73
CDM_260907-111405-562306-633022
2026-09-07T
11:14:09+0000
0.918 km
远距离
2.727524E-5 中风险 0.64
CDM_260906-122805-562306-633022
2026-09-06T
12:28:52+0000
1.019 km
极远距离
1.907797E-5 中风险 0.61
CDM_260907-093905-562306-633022
2026-09-07T
09:39:59+0000
1.920 km
极远距离
2.452634E-6 低风险 0.43
CDM_260906-153705-562306-633021
2026-09-06T
15:37:11+0000
2.195 km
极远距离
1.778568E-6 低风险 0.4
CDM_260907-124805-562306-633021
2026-09-07T
12:48:18+0000
2.330 km
极远距离
1.570594E-6 低风险 0.39
CDM_260906-105405-562306-633022
2026-09-06T
10:54:42+0000
2.537 km
极远距离
1.344737E-6 低风险 0.38